Vertical_Velocity
-4 -0 -5 -10 -7 -0 1 -5 -10 5 1 12 -11 -7 1 -4 -12 1 -1 0 -38 3
28 -13 6 -8 6 -4 1 3 4 -9 6 7 -15 -6 -17 -9 -12 -0 -6 -1 -3 -4
9 2 -3 4 -0 8 5 -2 6 2 -8 -4 1 1 6 -9 -8 -1 -1 -1 0 -1
10 1 -3 3 3 4 4 5 2 0 5 0 -2 2 -2 5 -1 2 -2 -2 -0 8
0 1 1 -2 2 4 -5 1 -2 -0 -2 1 1 -1 7 -0 2 4 0 -2 -3 1
-0 -1 0 1 -3 -1 0 -0 5 4 3 0 -0 3 6 1 6 -3 4 1 3 -0
0 -1 3 -1 0 1 -5 -0 3 -4 3 3 7 -1 2 3 5 2 5 8 10 5
-6 -0 -3 -3 -7 -3 -2 1 -1 1 4 5 -2 -3 1 -2 -3 -1 1 9 5 6
-6 -5 -4 1 -4 -4 -8 -2 -3 -1 1 -1 3 2 1 3 -1 -2 -3 -4 -1 6
6 -4 -5 -7 -0 -0 -5 -3 -5 -1 -2 2 1 -1 4 0 3 -0 -1 -5 1 2
0 -7 -3 -5 -2 0 1 0 4 1 -2 -7 2 -1 3 1 -1 -0 2 2 7 6
-17 0 8 0 4 4 8 6 -7 -1 0 -1 4 -2 1 -6 4 3 8 10 2 4
-10 -7 -9 -1 -2 -5 -7 -4 6 0 2 3 -5 -3 -0 3 -9 -3 1 -1 2 1
-6 -7 -5 4 -4 -6 -3 -3 -1 5 2 4 3 5 -5 -0 -4 5 0 1 4 2
Height
3071 3075 3080 3084 3086 3087 3089 3092 3094 3095 3097 3099 3102 3103 3103 3104 3105 3107 3107 3111 3111 3104
3069 3071 3075 3080 3083 3085 3087 3089 3090 3087 3087 3091 3094 3093 3095 3096 3097 3097 3099 3104 3105 3103
3070 3072 3076 3078 3080 3082 3084 3086 3085 3086 3087 3089 3089 3089 3089 3089 3092 3094 3095 3096 3098 3098
3068 3069 3072 3075 3078 3079 3081 3081 3081 3082 3082 3084 3083 3084 3084 3084 3085 3086 3087 3088 3090 3090
3067 3068 3070 3072 3074 3074 3075 3076 3075 3076 3076 3076 3077 3078 3078 3079 3078 3078 3079 3080 3081 3082
3066 3068 3068 3067 3069 3069 3069 3069 3069 3069 3069 3070 3071 3071 3071 3071 3070 3071 3071 3071 3073 3074
3066 3066 3065 3064 3064 3064 3064 3065 3063 3064 3062 3063 3062 3062 3062 3062 3061 3061 3062 3063 3064 3065
3061 3060 3059 3058 3058 3058 3058 3057 3056 3055 3054 3053 3052 3052 3054 3053 3052 3051 3052 3052 3055 3056
3052 3052 3052 3052 3051 3050 3048 3048 3047 3046 3044 3043 3042 3041 3041 3040 3040 3040 3041 3043 3045 3045
3046 3046 3046 3044 3043 3041 3040 3039 3038 3036 3035 3033 3031 3030 3030 3028 3029 3027 3028 3031 3033 3035
3039 3039 3039 3037 3035 3031 3029 3026 3025 3023 3022 3022 3021 3018 3018 3018 3017 3017 3018 3020 3021 3023
3032 3033 3029 3025 3022 3019 3015 3014 3013 3012 3011 3009 3009 3007 3006 3005 3005 3006 3008 3008 3009 3012
3029 3025 3021 3016 3012 3008 3005 3003 3001 2998 2996 2995 2994 2996 2995 2994 2992 2994 2997 2998 2996 2999
3023 3018 3013 3008 3003 3000 2997 2992 2987 2985 2984 2983 2982 2982 2983 2983 2981 2983 2985 2984 2985 2985